Погода Верхний Баскунчак

Погода Верхний Баскунчак : погода сейчас, прогноз погоды и архив. Всё, что Вы хотите узнать о погоде Верхний Баскунчак!

Хотите узнать прогноз погоды Верхний Баскунчак? Тогда Вам сюда: Погода Верхний Баскунчак

Поиск расширенной информации на нашем сайте:

Другие новости

Новости СМИ2

Главная страница сайта

Новости сайта

02.10.2013

Напоминаем, что на нашем новом сайте вы можете получить высокодетализированные прогнозы погоды по пунктам России, СНГ и мира (включающие важные для авиации метеовеличины, такие как направление и скорость ветра, видимость, явления погоды, количество и форма облачности, нижняя и верхняя граница облачности), а также ознакомиться с разнообразными материалами по авиационной метеорологии и подборкой полезных ссылок на эту тему.

Сайт Метеоцентр.Азия посвящён разработке технологий оптимизации авиаметеорологического обслуживания, включая проектирование и перспективное создание нескольких автоматизированных авиаметеорологических систем:
- система выпуска высокодетальных прогностических карт явлений погоды для нижнего воздушного пространства по России и ближнему зарубежью;
- система верификации прогнозов TAF (выпускаемых синоптиками официальных АМСГ РФ и ближнего зарубежья) и AUTOTAF (выпускаемых сайтом Метеоцентр.Азия) - выявление ошибок, онлайн-сопоставление с фактической погодой METAR, автоматическое внесение коррективов в прогнозы при резком отклонении фактической погоды от прогноза, подсчёт оправдываемости прогнозов по элементам и в целом;
- система обработки, анализа и отображения авиаметеорологической информации для применения провайдерами метеорологической информации.


Погода Верхний Баскунчак - сегодня

Время (UTC), дата Ветер
(°,м/с) 
Видим.   Явления Облачность Т
(°С)
Тd
(°С)
f(%) Тe
(°С)
Pmin
(гПа)
dP
(гПа)
Po
(мм)
O2
(г/м3)
Тmin Tmax R s Состояние
почвы
09 18.01.17 350 (С) 20000 м    10/10 600 м 
[Sc]
-7.4 -10.8 77 -9  1033.7  0.2  772  321           
12 18.01.17 340 (С) 20000 м    10/10 600 м 
[Sc]
-7.4 -10.2 80 -9  1033.5  -0.2  772  321           
15 18.01.17 360 (С) 4000 м  слаб. ливневой снег  10/10 600 м кучево-дожд. 
[Cb calv]
-7.6 -9.2 88 -7  1033.9  0.4  772  321    -7.1  0.0     
18 18.01.17 340 (С) 4000 м  слаб. ливневой снег  10/10 600 м кучево-дожд. 
[Cb calv]
-7.4 -9 88 -10  1034.8  0.9  773  321           
21 18.01.17 350 (С) 4000 м  дымка{ливн. осадки}  10/10 600 м 
[Sc]
-11.4 -12.7 90 -13  1034.7  -0.2  772  326           
00 19.01.17 340 (С) 4000 м  дымка{ливн. осадки}  ясно 
-14.2 -15.4 91 -16  1034.6  -0.1  772  330           
03 19.01.17 340 (С) 4000 м  дымка [диам. изморози 2 мм]  ясно 
-10.2 -11.3 92 -12  1034.5  -0.1  772  324  -14.3    0.0  неравномерный
сухой снег
100% 
06 19.01.17 350 (С) 4000 м  слаб. ливневой снег [диам. изморози 2 мм]  10/10 600 м кучево-дожд. 
[Cb calv]
-8.6 -9.7 92 -8  1035.3  0.9  773  323           
09 19.01.17 310 (СЗ) 20000 м  {ливн. осадки}  3/0 верхняя 
[Ci sp]
-7 -10.9 74 -8  1034.9  -0.4  773  321           
12 19.01.17 300 (СЗ) 10 км  слаб. снег  10/10 300 м 
[Frnb|Ns]
-6.7 -9.5 80 -8  1034.1  -0.7  772  320           
15 19.01.17 250 (З) 4000 м  дымка{снег}  ясно 
-11.1 -13.2 84 -13  1033.7  -0.5  772  325    -6.6  0.0     
18 19.01.17 240 (ЮЗ) 4000 м  дымка{снег}  ясно 
-12.3 -13.8 89 -14  1033.7  -0.1  772  327           
21 19.01.17 240 (ЮЗ) 4000 м  дымка  ясно 
-12.9 -14.1 91 -15  1032.7  -1  771  327           
00 20.01.17 240 (ЮЗ) 4000 м  дымка  ясно 
-12.3 -13.3 92 -16  1031.5  -1.2  770  326           
03 20.01.17 240 (ЮЗ) 4000 м  дымка  ясно 
-9.7 -10.8 92 -14  1029.7  -1.7  769  322  -14.5      неравномерный
сухой снег
100% 
06 20.01.17 240 (ЮЗ) 4000 м  дымка [диам. изморози 2 мм]  10/0 средняя 
[Ac und]
-9.3 -10.4 92 -13  1028.7  -1  768  321           
09 20.01.17 230 (ЮЗ) 6-10{11}  4000 м  дымка [диам. изморози 2 мм]  10/0 средняя 
[Ac und]
-8.1 -9.2 92 -13  1026.3  -2.4  766  319           
12 20.01.17 230 (ЮЗ) 6-11{12}  20000 м    9/0 средняя, верхняя 
[Ac As|Ci fib]
-7.2 -9.7 82 -12  1022.9  -3.3  764  317           
15 20.01.17 220 (ЮЗ) 6-11{13}  20000 м    9/0 средняя, верхняя 
[Ac As|Ci fib]
-7.2 -9.5 84 -12  1020.8  -2.2  762  316    -7.2       
18 20.01.17 230 (ЮЗ) 6{11}  4000 м  дымка  10/0 средняя 
[Ac und]
-7.3 -9.1 87 -12  1020.6  -0.1  762  316           
21 20.01.17 240 (ЮЗ) 5-10{11}  4000 м  слаб. снег  10/10 300 м 
[Frnb|Ns]
-6.2 -7.1 93 -10  1019.3  -1.3  761  315           
00 21.01.17 240 (ЮЗ) 4{10}  4000 м  дымка{снег}  10/0 средняя 
[Ac und]
-5.8 -6.6 94 -9  1018.8  -0.5  761  314           
03 21.01.17 250 (З) 4000 м  слаб. снег  10/10 600 м 
[Frnb|Ns]
-5 -6 93 -7  1017.7  -0.9  760  313  -7.3    0.0  мокрый или
старый снег
50-90% 
06 21.01.17 240 (ЮЗ) 4000 м  дымка{снег}  10/10 600 м 
[Sc]
-5 -6.1 92 -8  1018.2  0.3  760  313           
09 21.01.17 240 (ЮЗ) 4000 м  слаб. снег  10/10 300 м 
[Frnb|Ns]
-3.8 -5.6 87 -7  1017.1  -1.1  759  311           
Время (UTC), дата Ветер
(°,м/с) 
Видим.   Явления Облачность Т
(°С)
Тd
(°С)
f(%) Тe
(°С)
Pmin
(гПа)
dP
(гПа)
Po
(мм)
O2
(г/м3)
Тmin Tmax R s Состояние
почвы

Для получения пояснительной информации подведите курсор к названию столбца.

ПОГОДА Верхний Баскунчак - архив

Всё, что Вы хотите узнать о погоде Верхний Баскунчак - удобно и подробно!

Выберите нужную дату (начиная с 1 января 2015* года) и нажмите кнопку "Найти".
Будут отображены архивные сводки погоды по пункту Верхний Баскунчак, начиная с указанной даты.


Отображать данные в формате CSV (для использования в таблицах Excel)


Внимание! Наш архив погоды предназначен исключительно для личного некоммерческого использования в познавательных целях. Если Вам необходимы официальные справки о состоянии погоды (для производственных, юридических, коммерческих и т.п. целей), обращайтесь в органы Росгидромета.

*Примечание: данная дата относится к архиву по метеостанциям СССР (Россия, СНГ, Балтия).
Архив по метеостанциям Зарубежной Европы и Азии (кроме Китая) хранится 10 дней, по другим регионам земного шара (Китай, Африка, Америка, Австралия, Океания) - 1 день.

Верхний Баскунчак - район местоположения метеостанции


Название, широта, долгота, высота метеостанции:
Верхний Баскунчак 48.2°ш. 46.7°д. 34 м над ур. моря [Российская Федерация]

Дополнительная информация

В oтличие oт бoльшинства пoгoдных сайтoв мы публикуем пoдрoбную метеoинфoрмацию в детальнoм прoфессиoнальнoм фoрмате.

Характеристики температуры и влажнoсти вoздуха измеряются на высoте 2 м в тени вдали oт зданий и деревьев.
Скoрoсть ветра измеряется на высoте 10 м (на урoвне рoста челoвека скoрoсть ветра ниже в 1.5-2 раза). Если метеoстанция нахoдится в гoрoде или в лесу, тo скoрoсть ветра занижена на 2-4 м/с пo сравнению с oткрытым местoм. Скoрoсть ветра над акватoриями крупных рек и oзёр, а также на вершинах хoлмoв на 2-5 м/с выше, чем в oбычных услoвиях.
Атмoсфернoе давление в разных тoчках местнoсти мoжет значительнo oтличаться oт давления на метеoстанции, в зависимoсти oт услoвий рельефа (при пoдъёме на 10 м давление пoнижается примернo на 1 мм рт.ст.).